When you browse on this site, cookies collect data to enhance your experience and personalize the content and advertising you see.
Visit our Privacy Policy to learn more. By continuing to use the site, you agree to this use of cookies and data.
  • In Lithuania
  • List of Countries
  • For 7 days
  • Water Temperature
  • Weather Map
  • Weather Widgets
  • user-avatar
    Login

    Hourly Weather Setserleg

    Today, 4 June, Thursday

    Time Temperature Precipitation Wind Pressure Humidity
    00:00 +10°C° 0 mm 1 mps 608 mmHg 71%
    01:00 +10°C° 0 mm 1 mps 607 mmHg 71%
    02:00 +9°C° 0 mm 1 mps 607 mmHg 72%
    03:00 +9°C° 0 mm 1 mps 607 mmHg 72%
    04:00 +8°C° 0 mm 2 mps 607 mmHg 72%
    05:00 +10°C° 0 mm 1 mps 608 mmHg 67%
    06:00 +12°C° 0 mm 1 mps 609 mmHg 61%
    07:00 +13°C° 0 mm 1 mps 610 mmHg 54%
    08:00 +15°C° 0 mm 1 mps 610 mmHg 46%
    09:00 +16°C° 0 mm 1 mps 610 mmHg 38%
    10:00 +19°C° 0 mm 1 mps 611 mmHg 30%
    11:00 +19°C° 0 mm 2 mps 610 mmHg 29%
    12:00 +20°C° 0 mm 3 mps 610 mmHg 28%
    13:00 +21°C° 0 mm 4 mps 610 mmHg 27%
    14:00 +20°C° 0.2 mm 4 mps 609 mmHg 33%
    15:00 +19°C° 0.2 mm 5 mps 609 mmHg 40%
    16:00 +17°C° 0.2 mm 5 mps 608 mmHg 46%
    17:00 +15°C° 1 mm 4 mps 608 mmHg 58%
    18:00 +13°C° 1 mm 3 mps 607 mmHg 71%
    19:00 +12°C° 1 mm 2 mps 607 mmHg 83%
    20:00 +10°C° 0.1 mm 2 mps 607 mmHg 87%
    21:00 +10°C° 0.1 mm 1 mps 607 mmHg 90%
    22:00 +9°C° 0.1 mm 1 mps 607 mmHg 94%
    23:00 +9°C° 0 mm 1 mps 606 mmHg 93%

    Tomorrow, 5 June, Friday

    Time Temperature Precipitation Wind Pressure Humidity
    00:00 +8°C° 0 mm 1 mps 606 mmHg 93%
    01:00 +8°C° 0 mm 1 mps 606 mmHg 92%
    02:00 +8°C° 0 mm 1 mps 605 mmHg 88%
    03:00 +8°C° 0 mm 1 mps 605 mmHg 84%
    04:00 +8°C° 0 mm 1 mps 605 mmHg 80%
    05:00 +10°C° 0 mm 1 mps 606 mmHg 75%
    06:00 +11°C° 0 mm 1 mps 606 mmHg 70%
    07:00 +13°C° 0 mm 1 mps 607 mmHg 65%
    08:00 +15°C° 0 mm 1 mps 607 mmHg 56%
    09:00 +18°C° 0 mm 2 mps 608 mmHg 47%
    10:00 +20°C° 0 mm 2 mps 608 mmHg 38%
    11:00 +21°C° 0 mm 3 mps 608 mmHg 35%
    12:00 +22°C° 0 mm 3 mps 608 mmHg 32%
    13:00 +24°C° 0 mm 3 mps 609 mmHg 29%
    14:00 +23°C° 0 mm 4 mps 608 mmHg 30%
    15:00 +25°C° 0 mm 5 mps 607 mmHg 31%
    16:00 +25°C° 0 mm 5 mps 607 mmHg 31%
    17:00 +22°C° 0 mm 5 mps 606 mmHg 37%
    18:00 +21°C° 0 mm 4 mps 606 mmHg 42%
    19:00 +19°C° 0 mm 3 mps 606 mmHg 48%
    20:00 +18°C° 0 mm 3 mps 605 mmHg 52%
    21:00 +16°C° 0 mm 3 mps 605 mmHg 56%
    22:00 +13°C° 0 mm 3 mps 605 mmHg 61%
    23:00 +14°C° 0 mm 2 mps 605 mmHg 65%

    Day after tomorrow, 6 June, Saturday

    Time Temperature Precipitation Wind Pressure Humidity
    00:00 +13°C° 0 mm 2 mps 604 mmHg 70%
    01:00 +12°C° 0 mm 1 mps 604 mmHg 75%
    02:00 +12°C° 0 mm 2 mps 604 mmHg 71%
    03:00 +12°C° 0 mm 2 mps 603 mmHg 67%
    04:00 +12°C° 0 mm 2 mps 603 mmHg 63%
    05:00 +13°C° 0 mm 2 mps 604 mmHg 59%
    06:00 +15°C° 0 mm 2 mps 605 mmHg 55%
    07:00 +16°C° 0 mm 3 mps 606 mmHg 51%
    08:00 +17°C° 0 mm 3 mps 606 mmHg 50%
    09:00 +17°C° 0 mm 4 mps 607 mmHg 49%
    10:00 +16°C° 0 mm 5 mps 607 mmHg 48%
    11:00 +16°C° 0 mm 5 mps 607 mmHg 46%
    12:00 +16°C° 0 mm 5 mps 607 mmHg 45%
    13:00 +17°C° 0 mm 4 mps 607 mmHg 43%
    14:00 +18°C° 0 mm 4 mps 608 mmHg 39%
    15:00 +19°C° 0 mm 3 mps 608 mmHg 35%
    16:00 +20°C° 0 mm 2 mps 608 mmHg 31%
    17:00 +18°C° 0 mm 3 mps 608 mmHg 36%
    18:00 +15°C° 0 mm 4 mps 607 mmHg 40%
    19:00 +13°C° 0 mm 4 mps 606 mmHg 45%
    20:00 +12°C° 0 mm 3 mps 606 mmHg 46%
    21:00 +12°C° 0 mm 2 mps 606 mmHg 48%
    22:00 +10°C° 0 mm 1 mps 605 mmHg 49%
    23:00 +10°C° 0 mm 1 mps 605 mmHg 50%

    7 June, Sunday

    Time Temperature Precipitation Wind Pressure Humidity
    00:00 +10°C° 0 mm 1 mps 605 mmHg 50%
    01:00 +10°C° 0 mm 1 mps 605 mmHg 50%
    02:00 +9°C° 0 mm 1 mps 605 mmHg 52%
    03:00 +9°C° 0 mm 1 mps 605 mmHg 54%
    04:00 +8°C° 0 mm 2 mps 604 mmHg 56%
    05:00 +8°C° 0 mm 3 mps 604 mmHg 57%
    06:00 +7°C° 0 mm 4 mps 605 mmHg 58%
    07:00 +7°C° 0 mm 5 mps 605 mmHg 59%
    08:00 +8°C° 0.8 mm 5 mps 605 mmHg 60%
    09:00 +8°C° 0.8 mm 5 mps 605 mmHg 60%
    10:00 +8°C° 0.8 mm 4 mps 606 mmHg 61%
    11:00 +6°C° 3.4 mm 5 mps 605 mmHg 72%
    12:00 +3°C° 3.4 mm 6 mps 604 mmHg 84%
    13:00 -1°C° 3.4 mm 6 mps 604 mmHg 95%
    14:00 +1°C° 1.4 mm 5 mps 604 mmHg 93%
    15:00 +3°C° 1.4 mm 4 mps 605 mmHg 92%
    16:00 +4°C° 1.4 mm 3 mps 606 mmHg 90%
    17:00 +4°C° 0 mm 3 mps 606 mmHg 87%
    18:00 +5°C° 0 mm 2 mps 607 mmHg 85%
    19:00 +6°C° 0 mm 2 mps 607 mmHg 83%
    20:00 +5°C° 0 mm 2 mps 607 mmHg 82%
    21:00 +4°C° 0 mm 2 mps 608 mmHg 82%
    22:00 +4°C° 0 mm 2 mps 608 mmHg 81%
    23:00 +3°C° 0 mm 2 mps 608 mmHg 80%

    8 June, Monday

    Time Temperature Precipitation Wind Pressure Humidity
    00:00 +2°C° 0 mm 3 mps 608 mmHg 79%
    01:00 +2°C° 0 mm 3 mps 608 mmHg 78%
    02:00 +2°C° 0 mm 3 mps 608 mmHg 78%
    03:00 +1°C° 0 mm 3 mps 608 mmHg 77%
    04:00 +2°C° 0 mm 2 mps 608 mmHg 77%
    05:00 +3°C° 0 mm 2 mps 609 mmHg 76%
    06:00 +4°C° 0 mm 2 mps 609 mmHg 76%
    07:00 +7°C° 0 mm 1 mps 610 mmHg 75%
    08:00 +7°C° 0 mm 2 mps 610 mmHg 68%
    09:00 +8°C° 0 mm 2 mps 611 mmHg 61%
    10:00 +10°C° 0 mm 2 mps 611 mmHg 54%
    11:00 +12°C° 0.1 mm 2 mps 611 mmHg 50%
    12:00 +13°C° 0.1 mm 2 mps 611 mmHg 47%
    13:00 +13°C° 0.1 mm 2 mps 611 mmHg 43%
    14:00 +12°C° 0.6 mm 2 mps 610 mmHg 52%
    15:00 +10°C° 0.6 mm 3 mps 609 mmHg 62%
    16:00 +8°C° 0.6 mm 3 mps 608 mmHg 71%
    17:00 +8°C° 0.4 mm 3 mps 608 mmHg 74%
    18:00 +7°C° 0.4 mm 3 mps 608 mmHg 77%
    19:00 +7°C° 0.4 mm 3 mps 608 mmHg 80%
    20:00 +5°C° 0.1 mm 3 mps 608 mmHg 81%
    21:00 +5°C° 0.1 mm 2 mps 608 mmHg 83%
    22:00 +5°C° 0.1 mm 2 mps 608 mmHg 85%
    23:00 +4°C° 0 mm 2 mps 608 mmHg 84%

    9 June, Tuesday

    Time Temperature Precipitation Wind Pressure Humidity
    00:00 +4°C° 0 mm 2 mps 608 mmHg 82%
    01:00 +5°C° 0 mm 1 mps 608 mmHg 81%
    02:00 +4°C° 0 mm 1 mps 607 mmHg 80%
    03:00 +4°C° 0 mm 1 mps 607 mmHg 79%
    04:00 +4°C° 0 mm 1 mps 607 mmHg 78%
    05:00 +5°C° 0 mm 1 mps 607 mmHg 73%
    06:00 +7°C° 0 mm 1 mps 608 mmHg 68%
    07:00 +9°C° 0 mm 1 mps 609 mmHg 64%
    08:00 +9°C° 0 mm 2 mps 609 mmHg 57%
    09:00 +12°C° 0 mm 2 mps 609 mmHg 49%
    10:00 +14°C° 0 mm 2 mps 610 mmHg 42%
    11:00 +14°C° 0 mm 3 mps 610 mmHg 37%
    12:00 +15°C° 0 mm 4 mps 610 mmHg 33%
    13:00 +17°C° 0 mm 5 mps 610 mmHg 28%
    14:00 +16°C° 0 mm 6 mps 610 mmHg 31%
    15:00 +16°C° 0 mm 8 mps 609 mmHg 34%
    16:00 +16°C° 0 mm 9 mps 609 mmHg 37%
    17:00 +14°C° 0 mm 7 mps 609 mmHg 44%
    18:00 +13°C° 0 mm 5 mps 609 mmHg 51%
    19:00 +11°C° 0 mm 3 mps 609 mmHg 58%
    20:00 +10°C° 0 mm 3 mps 609 mmHg 61%
    21:00 +8°C° 0 mm 3 mps 608 mmHg 63%
    22:00 +7°C° 0 mm 2 mps 608 mmHg 66%
    23:00 +6°C° 0 mm 2 mps 608 mmHg 67%
    Show more